Weather Roundup
Issued by NWS Springfield, MO

Home | Current Version | Previous Version | Text Only | Print | Product List | Glossary On
Versions: 1 2 3 4 5 6 7 8 9 10 11 12 13 14 15 16 17 18 19 20 21 22 23 24 25 26 27 28 29 30 31 32 33 34 35 36 37 38 39 40 41 42 43 44 45 46 47 48 49 50
000
NZUS99 KSGF 190107
HRRSGF

HOURLY WEATHER
NATIONAL WEATHER SERVICE SPRINGFIELD MO
800 PM CDT FRI APR 18 2014

......SGF CWA......

CITY           SKY/WX    TMP DP  RH WIND       PRES   REMARKS
SPRINGFIELD    CLEAR     67  39  35 E3        30.15S
JOPLIN         CLEAR     66  40  38 VRB5      30.14S
WEST PLAINS    PTCLDY    67  38  34 SE8       30.17S
ROLLA          CLEAR     59  42  53 NE6       30.18R
OSAGE BEACH    CLEAR     63  37  39 NE5       30.19S
BRANSON        CLEAR     64  39  39 E6        30.16S

......SURROUNDING SGF CWA......

CITY           SKY/WX    TMP DP  RH WIND       PRES   REMARKS
CHANUTE        CLEAR     62  42  47 SE6       30.14S
PARSONS        CLEAR     66  39  37 CALM      30.14F
COFFEYVILLE    CLEAR     67  40  37 SE3       30.13S
EMPORIA        PTCLDY    62  41  46 S7        30.12R
GROVE OK       CLEAR     68  43  40 CALM      30.13S
ROGERS AR      CLEAR     67  38  34 E7        30.15S
SILOAM SPRINGS CLEAR     66  43  42 CALM      30.15S
HARRISON AR    CLEAR     65  39  38 E3        30.16S
NEAR YELLVILLE CLEAR     68  37  32 CALM      30.15S

......KANSAS AND MISSOURI......

CITY           SKY/WX    TMP DP  RH WIND       PRES   REMARKS
KANSAS CTY INT PTCLDY    60  39  45 SE9       30.14F
DOWNTOWN KC    CLEAR     66  40  38 SE5       30.14F
COLUMBIA       CLEAR     63  41  44 NE6       30.19S
SEDALIA        CLEAR     64  43  46 E6        30.18S
ST JOSEPH      CLEAR     61  39  44 SE9       30.13F
ST LOUIS       PTCLDY    65  40  39 E7        30.21S
SPIRIT OF STL  CLEAR     58  42  55 CALM      30.20S
KIRKSVILLE     CLEAR     58  37  45 SE6       30.20F
WICHITA        PTCLDY    66  41  40 S13       30.08F
TOPEKA         CLEAR     62  41  46 SE8       30.13S
OLATHE         CLEAR     62  41  46 SE5       30.15S

......TENNESSEE......

CITY           SKY/WX    TMP DP  RH WIND       PRES   REMARKS
MEMPHIS        MOCLDY    69  50  50 NE8       30.16R
NASHVILLE      CLOUDY    64  45  49 E3        30.18S

......ARKANSAS.......

CITY           SKY/WX    TMP DP  RH WIND       PRES   REMARKS
FAYETTEVILLE   MOCLDY    67  41  38 SE5       30.14R
FT SMITH       CLEAR     71  41  33 SE3       30.12S
LITTLE ROCK    PTCLDY    65  46  50 E6        30.16R

......OKLAHOMA.......

CITY           SKY/WX    TMP DP  RH WIND       PRES   REMARKS
TULSA          PTCLDY    68  42  38 SE5       30.11S
PONCA CITY     CLEAR     69  38  32 S6        30.10S
MCALESTER      CLEAR     71  42  35 NE3       30.12S
OKLAHOMA CITY  PTCLDY    65  43  44 S8        30.11S

......IOWA............

CITY           SKY/WX    TMP DP  RH WIND       PRES   REMARKS
DES MOINES     PTCLDY    62  33  33 SE10      30.17F
QUAD CITIES    CLEAR     54  30  40 E7        30.25R

......ILLINOIS........

CITY           SKY/WX    TMP DP  RH WIND       PRES   REMARKS
QUINCY         CLEAR     60  33  36 NE6       30.21S
CHICAGO        CLEAR     40  28  62 NE12      30.35R WCI  33



USA.gov is the U.S. government's official web portal to all federal, state and local government web resources and services.